sat.trackr.live / text

‹ back to catalog

STARLINK-31924

NORAD 59904 · 2024-100V

PAYLOAD ACTIVE UNKNOWN

§ Identity

Operator
Country
US
Launch date
2024-05-28
Launch site
AFETR
Launch vehicle
Mass (kg)
RCS (m²)

Purposes: comms

External: N2YO · Heavens-Above · Gunter

§ Orbital elements

Epoch: 2026-09-20T21:42:34.725312Z

Period
94.27 min
Inclination
43.0038°
Eccentricity
0.0001447
Mean motion
15.27583826 rev/d
Perigee alt
482.0 km
Apogee alt
484.0 km
Semi-major
6,861.2 km
B*
-1.3932e-5
RAAN
102.8174°
Arg perigee
269.7063°
Mean anomaly
90.3622°
Rev number
13,100

§ Raw data

STARLINK-319241 59904U 24100V   26263.90456858 -.00000646  00000+0 -13932-4 0  99972 59904  43.0038 102.8174 0001447 269.7063  90.3622 15.27583826131003

JSON: /api/v1/satellites/59904 · /tle

For live sub-satellite position, see the globe view (requires WebGL).

§ Visibility from observer

Set your observer location to see the next 7 days of passes ≥ 10°. The values pass through the URL so the page stays shareable.

No JS? Fill the form by hand. The geolocation button needs JavaScript.